Strona główna
METAR-TAF:

METAR-TAF

Lotnisko :

Branch County Memorial Airport

Coldwater, Michigan, Stany Zjednoczone

Szerokość geograficzna: 41-56N, Długość geograficzna: 085-03-09W, wysokość: 292 m

Aktualna obserwacja pogody

Raport powstał 25 minut temu, godzina 00:36 UTC
Wiatr 5 kt od zachód
Temperatura 6°C
Wilgotność 87%
Ciśnienie 1018 hPa
Widzialność: 16.1 km
Zachmurzenie całkowite na wysokości 1300 ft

METAR: KOEB 050036Z AUTO 26005KT 10SM OVC013 06/04 A3007 RMK AO2

czas: 21:01 (01:01 UTC)


TAF: brakujący

Obserwacja i prognoza pogody dla ponad 4000 lotnisk (raport METAR i TAF).

Dostępne stacje oznaczono żółtymi i czerwonymi punktami na mapie.

Najedź kursorem aby zobaczyć nazwę stacji.

Kliknij aby zobaczyć obserwacje i prognozy pogody.

Aby zmienić mapę: kliknij na zielony przycisk z czarnym krzyżykiem, aby powiększyć; na zielony przycisk z myślnikiem, aby pomniejszyć; na zielone strzałki, aby przejść do map sąsiednich.


METAR-TAF: